Regional Weather Roundup
Issued by NWS

Home | Current Version | Previous Version | Graphics & Text | Print | Product List | Glossary On
Versions: 1 2 3 4 5 6 7 8 9 10 11 12 13 14 15 16 17 18 19 20 21 22 23 24 25 26 27 28 29 30 31 32 33 34 35 36 37 38 39 40 41 42 43 44 45 46 47 48 49 50
000
ASUS44 KMEG 271810
RWRTN
TENNESSEE HOURLY STATE WEATHER ROUNDUP
NATIONAL WEATHER SERVICE MEMPHIS TN
100 PM CDT TUE SEP 27 2016

TNZ002-004-019-021-049-052-054-088>092-271900-
WEST TENNESSEE

CITY           SKY/WX    TMP DP  RH WIND       PRES   REMARKS
MEMPHIS INTL   MOSUNNY   77  42  28 N10       30.02F
NWS MEMPHIS      N/A     74 N/A N/A MISG        N/A
JACKSON        SUNNY    N/A N/A N/A N8        30.02F
DYERSBURG      SUNNY    N/A N/A N/A MISG        N/A
UNION CITY     SUNNY     75  43  31 VRB5      30.00F
PARIS          SUNNY     72  43  35 CALM      30.02F
HUNTINGDON     SUNNY     73  41  31 VRB5      30.01F
LEXINGTON      SUNNY     73  43  33 NW6       30.01F
$$

TNZ008-025-027-028-033-062-065-066-271900-
NORTH MIDDLE TENNESSEE

CITY           SKY/WX    TMP DP  RH WIND       PRES   REMARKS
NASHVILLE      MOSUNNY   74  43  32 VRB3      30.01F
PORTLAND       SUNNY     73  41  31 VRB5      30.01F
CLARKSVILLE    SUNNY     73  41  31 SW5       30.01F
SMYRNA         SUNNY     74  47  38 VRB7      30.01F
COOKEVILLE     SUNNY     75  50  41 VRB7      29.99F
GALLATIN       SUNNY     73  39  29 VRB5      30.03F
CROSSVILLE     SUNNY     75  37  25 CALM      30.00F
$$

TNZ061-075-076-078-094-096-097-271900-
SOUTH MIDDLE TENNESSEE

CITY           SKY/WX    TMP DP  RH WIND       PRES   REMARKS
FAYETTEVILLE   SUNNY     79  50  36 VRB6      29.98F
TULLAHOMA      SUNNY     75  39  27 N8        29.99F
WINCHESTER     SUNNY     77  61  57 CALM      29.97F
MCMINNVILLE    SUNNY     75  46  35 NE6       29.99F
COLUMBIA       SUNNY     73  46  38 N6        29.99F
SHELBYVILLE    SUNNY     79  45  29 N9        30.00F
$$

TNZ017-018-042-046-047-271900-
NORTHEAST TENNESSEE

CITY           SKY/WX    TMP DP  RH WIND       PRES   REMARKS
TRI CITIES     PTSUNNY   71  63  75 VRB5      29.97F
ELIZABETHTON   DRIZZLE   73  64  73 SW6       29.97F
$$

TNZ012-013-036-069-073-074-271900-
CENTRAL EAST TENNESSEE

CITY           SKY/WX    TMP DP  RH WIND       PRES   REMARKS
KNOXVILLE      MOSUNNY   74  62  66 S5        29.95F
OAK RIDGE      SUNNY     77  53  43 VRB3      29.97F
DOWNTOWN KNOXV PTSUNNY   77  63  61 CALM      29.95F
GATLINBURG     MOSUNNY   75  63  64 SW7       29.95F
MORRISTOWN     CLOUDY    73  63  68 CALM      29.96F
JACKSBORO      SUNNY     79  46  31 VRB3      29.99F
$$

TNZ083-085-099-271900-
SOUTHEAST TENNESSEE

CITY           SKY/WX    TMP DP  RH WIND       PRES   REMARKS
CHATTANOOGA    MOSUNNY   76  65  68 S5        29.97F
$$

SKY/WX REPORTED AS FAIR MEANS FEW OR NO CLOUDS BELOW
12 THOUSAND FEET.





USA.gov is the U.S. government's official web portal to all federal, state and local government web resources and services.